Theta_e
346 345 344 345 344 343 341 342 340 339 339 338 338 336 338 338 339 339 338 340 342 335 335 334 337 338 343 344 337 336 337 342 345 346 346 344 342 343 345 345 345 346 344
346 344 344 344 343 342 342 338 336 336 336 339 340 341 340 340 338 344 345 341 337 337 337 335 337 336 340 345 343 338 336 336 337 342 342 342 341 343 344 344 345 346 342
345 344 344 344 343 342 336 332 333 333 336 341 341 340 340 340 344 345 343 346 345 345 346 345 345 342 336 341 340 336 338 339 336 336 339 343 343 344 344 344 343 343 342
345 344 343 344 342 339 329 323 321 323 329 330 328 327 330 340 343 338 340 341 344 344 343 343 343 343 339 335 336 337 337 338 338 338 341 343 343 341 342 344 343 341 341
344 343 343 344 341 333 322 320 321 325 325 325 327 331 334 340 338 340 341 340 342 340 338 334 332 332 332 332 335 337 336 337 338 341 340 342 343 342 342 342 343 342 341
341 343 344 343 338 326 323 320 322 323 324 325 328 331 336 341 339 338 339 338 338 332 326 324 326 328 331 334 336 336 336 335 340 341 342 341 343 341 341 340 341 342 341
341 343 342 341 336 331 322 320 322 323 324 324 326 329 331 332 335 336 335 331 330 326 326 330 329 327 329 330 332 332 336 336 339 340 340 342 342 339 339 338 338 340 342
341 342 342 341 336 327 321 320 322 324 324 325 326 327 327 328 330 331 330 327 327 328 333 333 331 329 328 328 330 335 336 337 338 336 339 339 337 336 337 336 337 338 340
341 341 342 340 337 323 320 320 323 324 327 329 328 327 327 326 327 328 328 327 328 329 329 331 332 333 335 335 337 336 336 333 337 338 339 340 335 334 335 336 336 336 337
341 341 341 339 336 336 332 320 322 326 328 330 330 330 329 329 328 327 327 325 329 329 328 328 329 330 333 331 331 333 332 333 336 337 338 337 337 337 335 334 334 335 336
341 341 340 338 336 334 333 326 323 326 331 332 332 332 332 332 332 333 329 324 328 330 329 326 327 330 331 333 331 331 332 333 332 333 335 334 336 338 338 335 335 335 335
339 340 339 339 334 333 332 333 331 331 334 335 335 334 334 333 333 333 333 330 328 330 330 325 327 327 332 336 335 331 333 331 330 331 333 332 333 335 337 336 335 334 335
339 339 339 338 333 333 332 333 331 329 330 331 334 334 335 335 335 335 334 335 335 331 334 329 329 330 336 335 335 334 332 331 330 330 331 332 332 332 333 335 333 334 336
339 338 339 338 334 327 332 331 331 328 326 330 333 334 336 337 337 337 335 334 336 334 334 330 330 327 335 336 335 333 332 331 329 328 329 327 329 329 328 330 332 331 333
338 338 339 337 330 324 322 331 327 326 328 332 335 336 338 338 339 339 336 336 334 334 335 331 328 331 333 335 334 333 332 331 329 327 327 327 324 327 326 327 327 327 328
336 339 338 339 336 328 322 322 325 324 327 331 333 336 338 338 339 339 339 337 335 333 334 331 328 327 334 334 334 333 333 331 328 327 325 326 321 324 325 325 326 326 326
337 339 340 338 337 328 322 321 323 326 329 332 336 338 338 339 339 339 339 339 337 333 331 332 328 328 332 332 333 333 331 331 328 326 325 325 325 323 325 325 325 326 326
339 341 341 339 336 330 327 324 323 326 329 333 336 337 338 338 339 340 340 340 338 336 334 333 329 329 331 332 332 332 331 330 329 326 325 325 325 324 325 325 324 324 324
340 342 343 340 339 330 332 332 329 326 329 332 334 336 337 338 338 340 340 339 337 335 335 333 330 330 331 330 330 331 330 330 330 327 325 325 325 324 324 323 325 324 324
339 339 341 342 343 336 335 336 336 333 331 331 333 334 336 339 339 339 341 339 337 335 334 333 333 331 331 330 329 328 330 330 329 328 327 326 325 325 324 324 325 324 324
337 339 338 339 340 340 339 339 338 338 338 335 335 336 337 339 340 340 341 340 337 335 335 334 334 334 333 331 331 331 330 330 329 328 327 326 325 325 324 324 324 325 324
336 336 338 336 339 340 341 340 341 341 341 341 339 338 339 340 341 341 341 341 339 337 335 334 334 334 333 332 332 331 333 332 329 328 327 327 326 325 325 324 323 324 325
336 336 337 335 338 338 340 341 342 341 341 343 344 342 341 341 342 341 341 341 340 338 337 335 336 334 335 333 331 332 334 334 330 329 328 327 326 326 325 325 324 323 324
336 337 336 334 337 337 340 342 343 344 345 345 344 344 343 342 341 341 340 340 339 338 336 334 333 334 333 335 332 330 330 331 334 334 330 329 328 327 327 326 326 325 324
337 337 336 336 339 338 339 342 344 346 347 346 342 341 343 343 343 342 340 339 339 339 337 335 333 333 333 333 333 334 333 332 331 332 334 332 329 327 327 327 327 326 326
338 337 338 337 338 338 340 340 344 346 346 346 346 346 343 343 343 341 340 340 339 338 337 336 334 333 333 332 333 334 333 334 333 332 333 331 331 330 328 328 327 327 326
Wind_Speed
15 15 14 12 12 12 12 13 13 14 13 14 14 14 15 14 13 12 12 10 8 7 7 7 8 8 10 9 9 9 10 10 11 9 9 9 10 8 8 8 10 8 10
20 16 15 13 12 13 13 13 13 14 14 15 15 15 15 14 16 15 12 14 13 11 10 8 8 8 8 9 8 9 9 9 8 8 8 8 8 7 6 6 9 7 8
19 17 15 14 13 13 13 14 14 15 15 15 15 15 15 16 16 15 15 15 16 14 12 11 8 6 6 7 7 7 7 7 8 7 8 7 7 7 6 6 6 7 7
19 17 15 14 13 14 13 14 14 16 15 15 16 16 16 16 14 15 13 13 15 14 14 12 10 8 6 6 7 6 4 3 5 7 6 6 6 5 6 6 6 7 7
17 16 14 15 15 14 14 14 15 15 15 15 15 15 16 16 15 15 14 14 14 14 14 12 11 9 7 7 7 5 6 3 3 5 5 5 6 4 5 6 4 6 9
17 16 15 15 15 14 14 15 16 16 15 15 15 16 16 15 15 14 14 14 13 13 12 12 10 9 7 7 5 4 5 8 9 6 6 5 5 6 5 2 5 6 7
18 16 14 14 14 13 13 14 16 16 16 15 15 16 16 15 14 14 14 13 13 12 13 12 11 9 7 5 3 2 5 6 6 6 5 4 4 3 2 2 2 5 8
17 14 13 13 13 13 13 14 16 16 15 15 16 16 16 15 14 13 13 13 14 14 16 15 12 11 10 8 8 6 5 6 6 6 5 5 3 1 1 3 3 3 7
15 13 13 12 12 13 13 14 15 15 15 15 16 16 15 14 14 13 13 12 13 13 13 13 14 11 12 11 10 9 7 7 7 7 7 6 5 4 3 3 3 3 6
14 13 13 13 12 12 11 14 15 14 14 14 13 14 13 13 12 12 12 10 11 10 10 10 10 10 10 10 8 8 7 9 8 7 8 8 8 7 4 4 4 5 6
13 14 13 13 13 12 12 13 15 15 14 12 11 11 11 9 9 8 8 8 8 7 6 6 7 6 7 7 7 7 7 7 7 7 6 5 8 8 7 5 5 6 7
17 16 15 15 14 14 12 12 14 15 12 10 9 8 7 6 6 5 5 5 4 4 6 7 6 1 4 4 4 5 5 6 7 7 6 5 5 6 7 7 7 8 10
18 17 18 16 16 15 13 13 13 13 14 13 11 9 7 5 3 2 1 1 2 3 3 6 5 3 4 4 2 3 4 4 5 5 3 4 4 5 4 4 5 7 10
19 18 19 18 18 18 13 14 12 13 15 13 11 9 6 4 3 2 2 3 2 2 2 4 4 5 4 4 2 2 2 2 3 3 2 1 3 2 2 4 3 4 5
19 19 20 22 22 20 19 15 15 15 16 14 12 10 7 4 3 3 2 2 2 2 1 2 4 2 3 4 3 2 1 1 2 4 3 3 1 1 1 1 4 4 3
19 20 19 21 21 21 21 19 18 18 16 16 14 12 9 6 3 2 4 4 3 1 3 2 1 3 4 4 4 4 3 2 2 3 3 3 2 1 1 2 3 4 6
21 19 20 21 22 24 24 21 19 19 17 16 14 13 10 8 6 5 4 4 5 1 4 6 4 6 5 6 7 6 6 5 4 4 3 2 1 1 3 3 3 4 5
19 22 21 21 23 26 24 22 19 17 17 15 14 13 12 12 8 7 6 4 5 5 5 5 5 4 5 6 8 8 8 8 7 7 5 4 4 3 4 7 7 7 7
24 23 24 26 24 28 24 21 20 20 20 17 16 14 12 12 11 10 8 6 7 4 3 5 4 4 5 7 9 10 10 10 9 9 9 8 8 7 7 9 10 10 11
26 27 25 26 24 25 22 23 19 18 19 20 20 18 14 11 12 11 9 8 7 6 5 5 6 5 6 7 8 9 11 12 12 12 12 12 11 10 9 9 9 10 13
22 25 29 28 30 26 21 17 17 18 18 18 19 19 16 14 15 13 10 9 8 7 6 6 6 6 6 6 6 10 13 14 15 15 14 14 15 14 14 12 12 11 12
27 32 27 32 30 30 24 23 16 15 13 13 15 17 16 15 15 14 11 9 7 6 7 7 7 5 5 7 6 5 5 6 9 13 15 16 17 16 16 17 16 16 15
24 27 29 34 31 32 30 20 16 13 13 13 13 16 18 16 14 14 12 10 7 6 7 9 8 8 8 6 7 6 4 4 7 7 8 13 16 17 19 20 21 21 20
28 23 28 33 30 32 30 23 21 17 16 16 17 16 16 16 15 15 15 13 10 8 8 7 8 7 9 9 6 11 14 12 6 7 7 10 12 16 19 20 23 24 25
23 25 29 27 25 29 28 24 21 18 13 10 13 15 14 16 16 16 15 14 11 9 10 9 6 8 9 8 6 6 8 11 14 12 11 12 11 17 17 19 21 23 26
22 20 21 27 27 28 28 26 23 19 14 12 12 11 12 12 13 14 14 15 10 5 8 11 5 7 12 11 9 10 11 9 11 10 8 15 16 16 15 17 19 23 25
Wind_Direction
150 147 144 141 137 130 119 111 103 98 94 92 89 86 83 81 79 76 73 68 67 81 89 92 91 99 108 107 107 104 98 89 86 83 78 80 80 77 89 98 88 100 115
147 148 147 143 134 128 122 113 105 99 96 91 89 85 82 82 85 80 77 77 77 79 82 78 85 98 120 117 118 109 103 96 91 88 82 63 70 78 75 98 107 120 120
148 149 148 146 140 131 121 111 104 100 97 94 91 87 87 88 81 81 79 83 75 75 72 78 81 85 115 124 116 107 98 92 91 92 89 81 79 94 117 111 113 120 125
150 150 147 144 138 131 124 117 112 108 104 98 92 89 92 94 91 94 84 82 76 75 73 72 73 82 109 121 117 105 93 110 107 89 76 81 86 99 106 112 123 134 138
150 146 144 145 143 137 129 121 115 110 103 98 94 92 93 94 95 96 96 86 80 76 73 73 75 81 98 114 118 89 58 91 131 80 75 72 74 68 99 116 114 136 137
148 145 157 149 144 138 131 124 120 113 107 100 93 89 89 88 89 88 84 79 76 71 65 66 71 75 88 105 112 88 73 78 87 83 79 81 73 66 57 106 148 159 153
149 149 152 150 144 137 131 127 124 120 113 107 101 95 94 91 89 87 84 79 73 64 62 66 75 79 86 90 108 95 80 86 85 75 67 62 61 105 97 64 131 159 154
150 151 150 151 147 144 137 135 131 125 117 112 106 100 98 96 94 92 88 80 73 68 64 65 68 80 80 80 93 99 100 101 70 66 54 46 42 53 128 110 132 165 157
153 152 152 155 155 151 142 141 137 130 123 115 108 103 100 96 91 89 89 84 83 75 66 64 63 69 86 91 94 88 93 94 72 51 41 40 41 61 76 102 112 146 161
158 164 163 162 163 156 149 148 144 140 135 125 114 108 103 96 90 87 85 98 93 77 59 56 61 70 83 85 86 96 89 65 57 51 48 49 55 63 74 110 127 127 135
173 176 173 175 172 164 159 160 155 153 148 143 134 125 113 108 98 90 94 100 103 89 64 53 57 81 95 85 85 91 80 74 62 55 47 46 55 56 68 92 110 127 131
183 184 183 184 180 174 171 168 169 170 169 163 158 151 135 131 122 120 111 101 95 70 50 43 42 62 127 110 101 89 91 82 70 59 49 56 51 59 65 86 104 117 125
185 187 189 190 188 182 179 179 182 179 175 175 173 169 166 158 156 134 167 144 130 77 83 35 24 51 161 147 110 87 86 65 58 54 48 65 63 66 71 78 112 125 127
191 194 191 192 194 191 188 189 192 187 184 185 188 189 191 201 233 239 213 238 257 248 73 41 35 41 141 158 136 101 88 44 30 31 20 75 111 90 93 126 95 127 156
194 196 198 193 195 194 196 197 194 197 193 190 191 195 204 225 298 276 256 250 260 300 283 32 42 119 150 180 183 187 195 326 348 358 5 340 29 94 80 166 170 180 196
195 201 199 200 200 197 199 200 201 201 199 197 201 206 214 231 274 261 256 265 270 312 222 176 290 189 190 209 225 231 235 255 279 321 337 337 329 267 170 174 206 205 203
200 199 202 201 204 202 202 204 205 207 206 206 209 212 221 231 236 237 255 271 277 298 205 218 203 210 213 227 232 243 240 248 258 265 277 265 281 241 194 190 196 212 205
206 204 203 202 207 207 206 206 210 213 214 218 219 225 233 244 238 222 236 250 244 251 221 196 212 216 226 242 254 255 256 254 251 249 248 249 242 220 239 207 199 200 207
211 207 206 206 207 210 210 210 215 219 221 226 229 233 241 249 242 225 232 233 241 254 207 194 220 230 244 247 251 257 264 267 263 255 247 242 239 233 223 227 209 208 206
217 217 213 211 212 212 212 215 221 228 230 233 234 232 236 237 227 226 228 234 237 237 230 223 224 233 234 242 253 262 258 260 262 257 253 252 252 246 244 234 228 227 214
220 219 217 216 217 211 207 206 223 228 233 237 234 231 226 228 220 222 223 225 221 224 234 247 241 237 245 238 256 265 265 262 258 253 251 249 245 241 239 237 231 230 232
216 220 217 222 220 215 212 207 211 216 228 230 232 229 226 217 218 225 224 224 226 231 250 244 235 231 238 223 252 278 290 281 263 250 245 247 248 245 246 243 237 233 229
217 218 216 223 217 219 217 211 211 219 223 227 232 227 220 220 223 229 222 221 213 228 244 256 231 231 259 256 246 263 282 281 307 249 249 248 245 244 245 242 239 236 236
221 217 219 220 214 217 214 204 203 209 215 224 231 228 230 229 223 225 226 210 209 225 235 238 246 234 234 250 249 245 247 269 281 291 242 257 252 246 243 243 243 241 236
219 214 219 215 210 211 209 204 205 217 227 232 236 242 238 232 225 222 224 228 208 235 248 242 239 255 248 253 241 261 262 258 257 261 287 280 263 252 245 244 244 243 241
221 211 207 211 211 210 210 208 210 220 227 229 225 229 237 232 222 220 228 231 239 251 275 262 268 275 276 268 256 251 246 254 268 249 266 277 280 280 265 261 254 251 248